Back to catalog

TIANHUI 1-04

AliveScienceSSO
NORAD 49049·PAYLOAD·🇨🇳 China

Launched Jul 29, 2021 from Jiuquan Satellite Launch Center

Loading…

Next Passes (next 24 hours)

TLE

FreshSource: Space-Track

Epoch: Sep 14, 2026, 15:43 UTC

1 49049U 21067A   26257.65540584  .00003741  00000-0  15929-3 0  9995
2 49049  97.2678 323.0186 0001670 131.3106 228.8276 15.23577598285214

Track TIANHUI 1-04 in real time with AllMySat

Download on the App Store